TAP780 LPPT-ESSA

Flight info

Callsign TAP780
Flight time N/A
Altitude 34000
Route IXIDA DCT TOSDI N745 ZMR N873 DELOG DCT YURZI UL14 TEPRA UN867 MOKOR UN873 OBATO UL976 RONAX UN873 BAZOS DCT SULEX N874 CMB/N0457F350 DCT VEKIN N873 ADUTO/N0457F340 N873 HELEN/N0456F360 N873 SPY/N0456F350 N873 JUIST DCT DOSUR P729 TALSA Z702 AMTOT DCT BEDOS N851 PELUP Z226 NILUG
Aircraft A320/M-SDE3FGHIRWY/LB1

Departure

Time 2026-04-28 11:57
Airport Lisbon Humberto Delgado Airport (LPPT)

Arrival

Time N/A
Airport Stockholm-Arlanda Airport (ESSA)
Time Latitude Longitude Altitude Speed Heading
2026-04-28 11:16 38.76826 -9.13585 353 ft 0 kts 258°
2026-04-28 11:45 38.76830 -9.13560 337 ft 4 kts 258°
2026-04-28 11:45 38.76835 -9.13527 351 ft 3 kts 258°
2026-04-28 11:45 38.76839 -9.13499 350 ft 4 kts 276°
2026-04-28 11:45 38.76830 -9.13474 354 ft 4 kts 338°
2026-04-28 11:46 38.76826 -9.13471 352 ft 2 kts 347°
2026-04-28 11:46 38.76839 -9.13477 350 ft 0 kts 335°
2026-04-28 11:48 38.76840 -9.13478 349 ft 2 kts 337°
2026-04-28 11:48 38.76877 -9.13488 348 ft 9 kts 349°
2026-04-28 11:48 38.76963 -9.13509 353 ft 16 kts 349°
2026-04-28 11:49 38.77068 -9.13527 347 ft 12 kts 14°
2026-04-28 11:49 38.77134 -9.13456 350 ft 14 kts
2026-04-28 11:49 38.77237 -9.13484 346 ft 16 kts 347°
2026-04-28 11:49 38.77357 -9.13518 355 ft 19 kts 347°
2026-04-28 11:50 38.77503 -9.13558 349 ft 23 kts 348°
2026-04-28 11:50 38.77670 -9.13599 359 ft 25 kts 359°
2026-04-28 11:50 38.77846 -9.13515 360 ft 29 kts 22°
2026-04-28 11:50 38.78035 -9.13413 361 ft 30 kts 22°
2026-04-28 11:51 38.78227 -9.13313 360 ft 30 kts 22°
2026-04-28 11:51 38.78398 -9.13224 361 ft 21 kts 18°
2026-04-28 11:51 38.78502 -9.13236 362 ft 0 kts 344°
2026-04-28 11:55 38.78526 -9.13259 362 ft 8 kts 308°
2026-04-28 11:55 38.78555 -9.13341 361 ft 6 kts 293°
2026-04-28 11:56 38.78540 -9.13373 363 ft 9 kts 217°
2026-04-28 11:56 38.78342 -9.13482 364 ft 65 kts 202°
2026-04-28 11:56 38.77715 -9.13816 365 ft 128 kts 203°
2026-04-28 11:56 38.76731 -9.14326 422 ft 171 kts 200°
2026-04-28 11:57 38.75654 -9.14916 1152 ft 167 kts 201°
2026-04-28 11:57 38.74582 -9.15495 1742 ft 171 kts 202°
2026-04-28 11:57 38.73412 -9.16120 1989 ft 193 kts 202°
2026-04-28 11:57 38.72100 -9.16823 2194 ft 215 kts 202°
2026-04-28 11:58 38.70624 -9.17344 2469 ft 235 kts 179°
2026-04-28 11:58 38.69006 -9.16868 2995 ft 246 kts 152°
2026-04-28 11:58 38.67703 -9.15395 3619 ft 253 kts 121°
2026-04-28 11:58 38.67148 -9.13304 4349 ft 255 kts 91°
2026-04-28 11:59 38.67497 -9.11095 5033 ft 256 kts 60°
2026-04-28 11:59 38.68634 -9.09359 5765 ft 257 kts 41°
2026-04-28 11:59 38.70006 -9.07779 6239 ft 272 kts 41°
2026-04-28 11:59 38.71433 -9.06141 6885 ft 278 kts 41°
2026-04-28 12:00 38.72882 -9.04473 7596 ft 282 kts 42°
2026-04-28 12:00 38.74349 -9.02777 8298 ft 285 kts 42°
2026-04-28 12:00 38.75827 -9.01061 9010 ft 289 kts 43°